This demonstration page uses our WeatherBlox Daily Observations layout. Learn more.

Left ArrowRight Arrow

41.86663, -103.66717

Hourly Observations for August 5, 2020

Temp ( °F °C ) Dew Point ( °F °C ) Humidity (%) Winds ( mph kmh ) Pressure ( in mb ) Visibility ( mi km ) Precip ( " mm )
12:25 am 00:25 Mostly Cloudy with Nearby Thunderstorms 72 22.2 61 16.1 68 68 W 10 17 29.86 1011 10 16 N/A
12:53 am 00:53 Mostly Clear with Nearby Thunderstorms 73 22.8 53 11.7 50 50 SW 16 26 29.94 1014 10 16 N/A
1:07 am 01:07 Clear 69 20.6 55 12.8 61 61 WSW 16 26 29.88 1012 10 16 N/A
1:53 am 01:53 Clear 67 19.4 56 13.3 68 68 NNE 6 9 29.87 1011 10 16 N/A
2:53 am 02:53 Clear 64 17.8 56 13.3 75 75 ENE 3 6 29.87 1012 10 16 N/A
3:53 am 03:53 Clear 60 15.6 54 12.2 80 80 NW 7 11 29.88 1012 10 16 N/A
4:53 am 04:53 Clear 60 15.6 55 12.8 84 84 WNW 9 15 29.89 1012 10 16 N/A
5:53 am 05:53 Clear 58 14.4 54 12.2 87 87 SE 5 7 29.91 1013 10 16 N/A
6:53 am 06:53 Sunny 61 16.1 55 12.8 81 81 ESE 6 9 29.93 1014 10 16 N/A
7:53 am 07:53 Sunny 66 18.9 55 12.8 68 68 SE 3 6 29.94 1014 10 16 N/A
8:53 am 08:53 undefined 73 22.8 57 13.9 57 57 VRB 6 9 29.93 1014 10 16 N/A
9:53 am 09:53 Sunny 78 25.6 53 11.7 42 42 SE 6 9 29.92 1013 10 16 N/A
10:53 am 10:53 Sunny 83 28.3 49 9.4 31 31 VRB 7 11 29.91 1013 10 16 N/A
11:53 am 11:53 Sunny 86 30 51 10.6 30 30 E 10 17 29.90 1013 10 16 N/A
12:53 pm 12:53 Sunny 89 31.7 54 12.2 30 30 ESE 13 20 29.87 1012 10 16 N/A
1:53 pm 13:53 Sunny 90 32.2 52 11.1 27 27 E 8 13 29.85 1011 10 16 N/A
2:53 pm 14:53 Sunny 91 32.8 51 10.6 26 26 E 6 9 29.84 1011 10 16 N/A
3:53 pm 15:53 Sunny 92 33.3 56 13.3 30 30 E 8 13 29.83 1010 10 16 N/A
4:53 pm 16:53 Sunny 89 31.7 59 15 36 36 ENE 12 19 29.81 1010 10 16 N/A
5:53 pm 17:53 Sunny 85 29.4 59 15 42 42 NE 12 19 29.82 1010 10 16 N/A
6:53 pm 18:53 Mostly Sunny 83 28.3 58 14.4 43 43 ESE 14 22 29.82 1010 10 16 N/A
7:53 pm 19:53 Mostly Cloudy with Light Rain 78 25.6 61 16.1 56 56 ESE 18 30 29.82 1010 10 16 0.00 0.00
8:53 pm 20:53 Clear 74 23.3 61 16.1 64 64 ESE 12 19 29.83 1010 10 16 0.00 0.00
9:53 pm 21:53 Clear 71 21.7 61 16.1 71 71 ENE 9 15 29.88 1012 10 16 N/A
10:53 pm 22:53 Clear 70 21.1 60 15.6 71 71 ESE 8 13 29.88 1012 10 16 N/A
11:53 pm 23:53 Clear 69 20.6 60 15.6 73 73 ENE 12 19 29.88 1012 10 16 N/A

Powered by AerisWeather